sat.trackr.live / text

‹ back to catalog

ONEWEB-0243

NORAD 48774 · 2021-045H

PAYLOAD ACTIVE UNKNOWN

§ Identity

Operator
Country
UK
Launch date
2021-05-28
Launch site
VOSTO
Launch vehicle
Mass (kg)
RCS (m²)

Purposes: comms

External: N2YO · Heavens-Above · Gunter

§ Orbital elements

Epoch: 2026-09-09T22:40:39.568224Z

Period
109.46 min
Inclination
87.8966°
Eccentricity
0.0002517
Mean motion
13.15547749 rev/d
Perigee alt
1,199.9 km
Apogee alt
1,203.7 km
Semi-major
7,579.9 km
B*
-4.9144e-5
RAAN
242.3163°
Arg perigee
81.3864°
Mean anomaly
278.7552°
Rev number
25,550

§ Raw data

ONEWEB-02431 48774U 21045H   26252.94490241 -.00000006  00000+0 -49144-4 0  99952 48774  87.8966 242.3163 0002517  81.3864 278.7552 13.15547749255501

JSON: /api/v1/satellites/48774 · /tle

For live sub-satellite position, see the globe view (requires WebGL).

§ Visibility from observer

Set your observer location to see the next 7 days of passes ≥ 10°. The values pass through the URL so the page stays shareable.

No JS? Fill the form by hand. The geolocation button needs JavaScript.